Location: Unspecified
(0.0000°N, 0.0000°E)
Time: 08:41:40
(UTC+00:00)

ISS - Pass Details

Date: 19 September 2021
Orbit: 419 x 423 km, 51.6° (Epoch: 18 September)

Event Time Altitude Azimuth Distance (km) Brightness Sun altitude
Exits shadow 04:46:05 13° 198° (SSW) 1,340 -1.4 -16.9°
Drops below altitude 10° 04:46:43 10° 189° (S) 1,504 -1.1 -16.8°
Sets 04:49:18 0° 169° (S) 2,371 0.2 -16.1°
